THOR ABLESTAR DEB, 1521

Orbit data source: Space-Track

THOR ABLESTAR DEB, 1521 is space debris in LEO originally from a launch on Fri, 13 Aug 1965 UTC launched from the Air Force Western Test Range (AFWTR). Debris objects in space refer to the collection of defunct objects orbiting the Earth. Examples of debris include non-operational satellites, rocket bodies, and fragments generated from explosions, collisions, or faulty payload assembly.

Loading next visibility...
Identifier
1521, 1965-065K
Orbit
LEO
Country
Flag of USUS
Related business
Manufacturer
NRL
Mission
Spacecraft
Bus & Motor
Unknown
Mass
Unknown
Launch date (UTC)
1965-08-13 (60 years ago)
Launch vehicle
Unknown
Launch site
Air Force Western Test Range (AFWTR)
Object type
Payload
Rocket body
Debris
Shape & HBR
Unknown shape, 0.2 m
Radar Cross Section
Small (<0.1 m²)

Expand to show TLE details & history
Last TLE update: 5 hours ago

TLE from 5 hours ago
0 THOR ABLESTAR DEB
1  1521U 65065K   25308.50026064  .00000036  00000-0  53361-4 0  9993
2  1521  90.0124 209.9193 0069548 172.1742   3.5700 13.33270952929466
Epoch: 2025-11-04T12:00Z
TLE epoch observation values (Epoch: 2025-11-04T12:00:22.519Z)
Latitude
4.1158°
Longitude
165.83997°
Altitude
1,084.785 km
Speed
7.335 km/s
True Right ascension
01h 59m 40s
True Declination
4° 05' 32"
Sunlit
Object was in full shadow at epoch
Visualization orbit readout
Latitude
Unknown
Longitude
Unknown
Altitude
Unknown
Speed
Unknown
Apparent Right ascension
Unknown
Apparent Declination
Unknown
Sunlit
N/A
Visualization observer readout
Local Sidereal Time
13:02:28
Azimuth
Unknown
Elevation
Unknown
Doppler factor
Unknown
Orbital elements
Apogee altitude
1,183.753 km
Perigee altitude
1,079.297 km
Semi-major axis
7,509.662 km
Eccentricity
0.00695
Inclination
90.0124°
RAAN
209.9193°
Arg. of periapsis
172.1742°
True anomaly
3.62006°
Mean anomaly
3.57°
Eccentric anomaly
3.59499°
Mean motion
3.33513 °/min
Orbital period
107.94 mins
BSTAR
0.000053361
Loading maneuver chart data...
Computing Atmospheric mass density...
Loading historical data...
Loading historical data...
Loading historical data...
Loading historical data...
Loading historical data...
Loading historical data...
Loading historical data...

Documentation

Showing up to 5 results
|